Location: Colle San Luigi
(43.5500°N, 13.4167°E)
Time: 12:02:59
(UTC+00:00)

Cosmos 1726 Rocket - Pass Details

Date: 09 April 2020
Orbit: 602 x 631 km, 82.5° (Epoch: 05 June)

Event Time Altitude Azimuth Distance (km) Brightness Sun altitude
Rises 18:54:34 0° 195° (SSW) 2,880 6.9 -13.1°
Reaches altitude 10° 18:56:47 10° 198° (SSW) 1,984 6.1 -13.5°
Maximum altitude 19:01:09 63° 280° (W) 700 4.1 -14.2°
Drops below altitude 10° 19:05:35 10° 2° (N) 2,015 6.5 -14.9°
Sets 19:07:52 0° 6° (N) 2,929 7.3 -15.3°
